Location: Brno
(49.2000°N, 16.6330°E)
Time: 11:15:41
(UTC+01:00)

ISS - Visible Passes

Search period start: 25 January 2015 00:00
Search period end: 04 February 2015 00:00
Orbit: 402 x 410 km, 51.6° (Epoch: 25 January)

Date Brightness Start Highest point End Pass type
(mag) Time Alt. Az. Time Alt. Az. Time Alt. Az.
25 Jan -2.2 05:34:02 34° SSW 05:34:02 34° SSW 05:36:40 10° SE visible
26 Jan -0.4 04:44:32 15° SE 04:44:32 15° SE 04:45:10 10° SE visible
26 Jan -1.0 06:17:15 11° SW 06:17:54 12° SW 06:19:04 10° SSW visible
27 Jan -0.9 05:27:48 14° S 05:27:48 14° S 05:28:43 10° S visible
